Regional Weather Roundup
Issued by NWS Charleston, SC

Current Version | Previous Version | Text Only | Print | Product List | Glossary Off
Versions: 1 2 3 4 5 6 7 8 9 10 11 12 13 14 15 16 17 18 19 20 21 22 23 24 25 26 27 28 29 30 31 32 33 34 35 36 37 38 39 40 41 42 43 44 45 46 47 48 49 50

000
ASUS42 KCHS 231825
RWRCHS

REGIONAL WEATHER ROUNDUP
NATIONAL WEATHER SERVICE CHARLESTON SC
200 PM EDT TUE SEP 23 2014

NOTE: "FAIR" INDICATES FEW OR NO CLOUDS BELOW 12,000 FEET WITH NO
SIGNIFICANT WEATHER AND/OR OBSTRUCTIONS TO VISIBILITY.

NOT ALL STATIONS ARE QUALITY CONTROLLED BY THE NATIONAL
WEATHER SERVICE. USE DATA WITH CAUTION...ESPECIALLY
DEWPOINT OBSERVATIONS.

SCZ027-030-031-034>040-042>050-231900-
...SOUTH CAROLINA...

CITY           SKY/WX    TMP DP  RH WIND       PRES   REMARKS
N CHARLESTON   CLOUDY    72  66  83 N9        30.16R
6HR MIN TEMP:  67; 6HR MAX TEMP:  72; 6HR PCP:  0.52;

WATERFRONT PRK NOT AVBL
FORT JOHNSON   NOT AVBL
MOUNT PLEASANT LGT RAIN  68  66  94 NE8       30.15R
JOHNS ISLAND   LGT RAIN  70  70 100 NE6       30.14F
PINOPOLIS        N/A     70  64  83 NE15      30.10S
MONCKS CORNER  LGT RAIN  68  66  94 N5        30.18S
SUMMERVILLE    LGT RAIN  68  68 100 NE6       30.18F
BEAUFORT MCAS  PTSUNNY   73  67  81 N14       30.14F
6HR MIN TEMP:  67; 6HR MAX TEMP:  73; 6HR PCP:  0.04;

BEAUFORT ARPT  CLOUDY    72  68  88 N16G22    30.13F
HILTON HEAD IS PTSUNNY   70  66  88 N10G17    30.14F
GEORGETOWN     NOT AVBL
WALTERBORO     CLOUDY    70  70 100 N12       30.17F
ORANGEBURG     CLOUDY    65  61  87 NE12      30.20F
6HR MIN TEMP:  62; 6HR MAX TEMP:  65; 6HR PCP: TRACE;

BARNWELL       CLOUDY    72  64  78 NE13G18   30.20S
AIKEN          CLOUDY    72  63  73 NE14      30.24F
MANNING        CLOUDY    64  64 100 N8        30.22R
KINGSTREE      NOT AVBL
COLUMBIA       RAIN      66  60  81 NE9       30.23S
6HR MIN TEMP:  65; 6HR MAX TEMP:  71; 6HR PCP:  0.02;

SUMTER         PTSUNNY   64  57  76 NE15      30.23S
6HR MIN TEMP:  62; 6HR MAX TEMP:  68; 6HR PCP: TRACE;

FLORENCE       LGT RAIN  62  56  80 NE14      30.24S
6HR MIN TEMP:  62; 6HR MAX TEMP:  64; 6HR PCP:  0.07;

MYRTLE BEACH   PTSUNNY   66  59  77 NE17      30.19F
N MYRTLE BEACH LGT RAIN  67  60  78 NE13G20   30.19S
6HR MIN TEMP:  66; 6HR MAX TEMP:  68; 6HR PCP:  0.01;


$$

GAZ063-065-086>088-099>101-113>116-118-119-134-136>141-150-231900-
...GEORGIA...

CITY           SKY/WX    TMP DP  RH WIND       PRES   REMARKS
SAVANNAH ARPT  PTSUNNY   79  66  64 NE12      30.13F
6HR MIN TEMP:  68; 6HR MAX TEMP:  79; 6HR PCP:  0.01;

HUNTER AAF     MOSUNNY   76  66  71 N9        30.10F
6HR MIN TEMP:  67; 6HR MAX TEMP:  77; 6HR PCP: TRACE;

FORT STEWART   PTSUNNY   81  64  57 NE16      30.10F
6HR MIN TEMP:  67; 6HR MAX TEMP:  81;

STATESBORO     NOT AVBL
SYLVANIA       MOCLDY    77  70  79 E12       30.16F
CLAXTON        MOCLDY    77  70  78 N10       30.13F
THOMSON        MOSUNNY   77  67  70 N8        30.24F
AUGUSTA-BUSH   CLOUDY    75  62  64 E12       30.19S
6HR MIN TEMP:  64; 6HR MAX TEMP:  76;

AUGUSTA-DANIEL MOSUNNY   75  61  61 E10       30.20F
SWAINSBORO     CLOUDY    77  66  69 NE10      30.17F
VIDALIA        PTSUNNY   77  66  69 NE14G22   30.15S HAZE
ALMA           MOSUNNY   82  60  47 NE9       30.10F
6HR MIN TEMP:  65; 6HR MAX TEMP:  83;

WAYCROSS       PTSUNNY   83  66  56 NE12G21   30.08F
JESUP          MOCLDY    84  68  58 E9        30.10F
BRUNSWICK      CLOUDY    73  68  83 NE9       30.10S
SAINT SIMONS   CLOUDY    75  67  76 NE15      30.08F
6HR MIN TEMP:  67; 6HR MAX TEMP:  76; 6HR PCP:  0.09;


$$

SCZ027-028-034-036>038-045-046-048>050-GAZ119-141-231900-
...LAKE AND SUPPLEMENTAL COASTAL OBSERVATIONS...

STATION/POSITION TIME  TEMP    WIND        PRES    WAVE   SWELL
                       AIR SEA DIR/SP/G            HT/PER HT/PER/DIR
                 (UTC) (F)     (DEG/KT/KT) (MB)    (FT/S) (FT/S/D)
UPR LAKE MARION  NOT AVBL
WINYAH BAY       1800   67      10/  6     1022.0S
LAKE MURRAY      1700   67      30/  5/  9 1023.4S
ACE BASIN NERRS  1800   68      10/  3     1021.0S
FORT PULASKI     1800   72      20/ 14/ 18 1020.2F
SAPELO ISLAND    1800   71      40/  6     1019.0F

$$

ANZ835-935-AMZ111-154-330-350-352-354-374-450-454-472-231900-
...C-MAN AND BUOY OBSERVATIONS...

STATION/POSITION TIME  TEMP    WIND        PRES    WAVE   SWELL
                       AIR SEA DIR/SP/G            HT/PER HT/PER/DIR
                 (UTC) (F)     (DEG/KT/KT) (MB)    (FT/S) (FT/S/D)
FOLLY BEACH CMAN 1800   70      50/ 17/ 19 1020.8F
BUOY 41004       1800   77 81   40/ 19/ 23 1018.8R   7/ 6   2/ 9
BUOY 41008       1800   74 82   60/ 19/ 23 1018.6F   4/ 6
5E ST. MARYS GA  1800      82                N/A     5/ 5
FRYING PAN BUOY  NOT AVBL
BUOY 41025       1800   73      10/ 25/ 31 1021.2F   6/ 6   2/ 10/10
CAPE LOOKOUT NC  1800   69      20/ 18/ 22 1021.9F
BUOY 41002       1652   77 80  100/ 14/ 16 1019.0F   3/ 7   3/100/ 7
BUOY 41010       1800   82 85  150/ 12/ 14 1016.9F   2/ 9   2/ 70/ 9
BUOY 41012       NOT AVBL
ST AUGUSTINE FL  1800   76      10/ 22/ 24 1017.3F
CAPERS NEARSHORE 1700   69      40/ 19/ 25   N/A
FRIPP NEARSHORE  NOT AVBL


$$


USA.gov is the U.S. government's official web portal to all federal, state and local government web resources and services.